Regional Weather Roundup
Issued by NWS

Home | Current Version | Previous Version | Text Only | Print | Product List | Glossary Off
Versions: 1 2 3 4 5 6 7 8 9 10 11 12 13 14 15 16 17 18 19 20 21 22 23 24 25 26 27 28 29 30 31 32 33 34 35 36 37 38 39 40 41 42 43 44 45 46 47 48 49 50

000
ASUS45 KTFX 310719
RWRMT
MONTANA HOURLY WEATHER ROUNDUP
NATIONAL WEATHER SERVICE GREAT FALLS MT
119 AM MDT FRI OCT 31 2014

NOTE: "FAIR" INDICATES FEW OR NO CLOUDS BELOW 12000 FEET WITH NO
SIGNIFICANT WEATHER AND/OR OBSTRUCTIONS TO VISIBILITY.

* THESE STATIONS ARE NOT UNDER NWS QUALITY CONTROL. THEY DO NOT
   REPORT WEATHER SUCH AS PRECIPITATION OR FOG.

MTZ001>007-043-310800-
WEST OF THE DIVIDE
CITY           SKY/WX    TMP DP  RH WIND       PRES   REMARKS
KALISPELL      FOG       36  36 100 SE3       29.93F VSB M1/4
MISSOULA       MOCLDY    37  36  96 NW3       29.97F
BUTTE          MOCLDY    39  28  65 SE5       30.08F WCI  35
MULLAN PASS    PTCLDY    39  37  93 S12       29.93F WCI  32
* DEER LODGE   PTCLDY    52  30  43 S5         N/A
* ESSEX        N/A       39  37  93 S7         N/A   WCI  34
* HAMILTON APT CLOUDY    41  37  86 SE3        N/A
* LIBBY APT    CLOUDY    43  41  93 N/A        N/A
* LINCOLN      N/A       34  32  92 E1         N/A
* LOOKOUT PASS N/A       39  38  96 S6G12      N/A   WCI  35
* POLSON       N/A       39  39 100 N/A        N/A
* RONAN APT    CLOUDY    43  39  86 N/A        N/A
* SEELEY LAKE  N/A       33  32  96 N/A        N/A
* THOMP F APT  PTCLDY    50  27  41 NE8        N/A
* YAAK HILL    N/A       44  41  89 SE2G7      N/A
$$

MTZ008-052>055-310800-
SOUTHWEST MONTANA
CITY           SKY/WX    TMP DP  RH WIND       PRES   REMARKS
BOZEMAN        MOCLDY    36  32  85 CALM      30.08F
DILLON         CLOUDY    39  30  70 S3        30.08F
W YELLOWSTONE  PTCLDY    27  25  92 CALM      30.20F
* ENNIS APT    MOCLDY    52  27  38 S9         N/A
* THREE FORKS  MOCLDY    34  34 100 N/A        N/A
* BOULDER HILL N/A       42  23  47 SW12       N/A
* MONIDA PASS  N/A       40  26  57 E1         N/A
* RAYNOLDS PAS N/A       36  21  54 S11        N/A   WCI  28
* WHITEHALL    N/A       35  27  73 W3         N/A
* WISE RIVER   N/A       34  30  85 SW1G7      N/A
$$

MTZ009>010-012-014-046-048-049-054-310800-
EAST SLOPES AND CENTRAL MONTANA
CITY           SKY/WX    TMP DP  RH WIND       PRES   REMARKS
CUT BANK       CLOUDY    36  34  92 E8        29.97F WCI  30
GREAT FALLS    CLOUDY    54  30  40 S16       29.99F
HELENA         MOCLDY    41  34  76 NW3       30.04F
MALMSTROM AFB  CLOUDY    39  36  89 NE3       30.00F
* EAST GLACIER N/A       38  33  82 N6         N/A   WCI  33
* MONARCH      N/A       52  23  32 S22G29     N/A
* SAINT MARY   N/A       38  33  82 S4         N/A
* SWEET GRASS  N/A       36  35  96 S27G32     N/A   WCI  24
* WHITE SULPH  N/A       43  29  58 NE7G15     N/A
$$

MTZ011-013-016-021-035-040-045-047-050-051-310800-
NORTH CENTRAL MONTANA
CITY           SKY/WX    TMP DP  RH WIND       PRES   REMARKS
HAVRE          MOCLDY    36  32  85 NE16      30.05F WCI  26
LEWISTOWN      PTCLDY    43  32  65 E8        30.09F
* N BAR RANCH  CLEAR     41  32  70 CALM      30.17F
* FORT BENTON  MOCLDY    45  34  65 E7G16     30.02F
* MALTA APT    PTCLDY    36  30  79 E7         N/A   WCI  30
* CHESTER      N/A       40  34  79 SE5G10     N/A   WCI  36
* DENTON       N/A       45  33  63 S10        N/A
* GEYSER       N/A       39  33  79 S3         N/A
* JUDITH GAP   N/A       40  31  70 S12        N/A   WCI  33
* LOMA         N/A       42  34  73 NE21G27    N/A
$$

MTZ017>020-022>027-061-062-310800-
NORTHEAST MONTANA
CITY           SKY/WX    TMP DP  RH WIND       PRES   REMARKS
GLASGOW        CLOUDY    36  30  79 SE21G28   30.30F WCI  25
GLENDIVE       CLOUDY    34  28  79 SE15      30.39F WCI  24
JORDAN         MOCLDY    32  28  85 E10       30.26F WCI  24
SIDNEY         CLOUDY    34  27  76 SE16G22   30.45F WCI  24
WOLF POINT     CLOUDY    37  30  76 SE14G23   30.38F WCI  28
* BEAVER HILL  N/A       31  29  92 SE20G29    N/A   WCI  19
* CIRCLE       N/A       33  30  89 E5G12      N/A   WCI  28
* LINDSAY DVD  N/A       31  29  92 E21G29     N/A   WCI  18
* NAVAJO       N/A       31  27  85 SE22G27    N/A   WCI  18
* PLENTYWOOD A N/A       28  25  89 SE20G25    N/A   WCI  15
* POPLAR APT   N/A       36  30  79 N/A        N/A
* SCOBEY APT   PTCLDY    34  25  70 SE17G29    N/A   WCI  23
$$

MTZ028>042-056>058-310800-
SOUTHCENTRAL AND SOUTHEAST MONTANA
CITY           SKY/WX    TMP DP  RH WIND       PRES   REMARKS
BAKER          CLOUDY    34  28  79 SE20G30   30.40F WCI  23
BILLINGS       PTCLDY    39  32  76 N7        30.15F WCI  34
LIVINGSTON     CLOUDY    41  28  60 CALM      30.13F
MILES CITY     PTCLDY    34  28  79 SE13      30.31F WCI  25
* FORSYTH APT  PTCLDY    32  30  92 E6         N/A   WCI  26
* LAUREL APT   MOCLDY    43  25  49 N5         N/A
* ROUNDUP APT  PTCLDY    36  28  73 N/A        N/A
* ALZADA       N/A       32  30  92 E15        N/A   WCI  22
* HYSHAM       N/A       43  31  63 E11G18     N/A
* LAME DEER    N/A       37  31  79 SE11       N/A   WCI  29
* REED POINT   N/A       35  30  82 NW1        N/A
* ROSCOE HILL  N/A       41  24  51 W4         N/A
$$

REGIONAL REPORTS...DAKOTAS
CITY           SKY/WX    TMP DP  RH WIND       PRES   REMARKS
WILLISTON      CLOUDY    30  23  75 SE16      30.48F WCI  19
DICKINSON      CLOUDY    28  25  89 SE13      30.47S WCI  17
BEACH          FOG       32  32 100 SE20G28   30.41F WCI  20
CROSBY         CLEAR     19  19 100 S6        30.48F WCI  11
TIOGA          FAIR      14  14 100 SE8       30.50F WCI   3
BISMARCK       PTCLDY    19  16  88 CALM      30.59R
GRAND FORKS    CLEAR     16  12  84 N6        30.60R WCI   7
FARGO          CLEAR     19  16  88 N8        30.58R WCI   9
BUFFALO SD     CLEAR     34  28  79 SE20G25   30.38F WCI  23
RAPID CITY     FOG       30  28  92 SE12      30.49S WCI  20
$$

REGIONAL REPORTS...WYOMING/IDAHO/WASHINGTON
CITY           SKY/WX    TMP DP  RH WIND       PRES   REMARKS
GILLETTE       CLEAR     36  30  79 S21       30.31S WCI  25
SHERIDAN       PTCLDY    39  27  62 S8        30.19F WCI  33
CODY           PTCLDY    39  27  62 SE7       30.18F WCI  34
YELLOWSTONE LA PTCLDY    28  27  96 NW3       30.28F
SALMON         CLOUDY    39  36  89 CALM      30.02F
MULLAN PASS    PTCLDY    39  37  93 S12       29.93S WCI  32
SAND POINT     MOCLDY    46  45  96 NE14      29.84F
SPOKANE        CLOUDY    48  43  83 NE9       29.79F
$$

REGIONAL REPORTS...ALBERTA
CITY           SKY/WX    TMP DP  RH WIND       PRES   REMARKS
CALGARY        MOCLDY    43  34  71 S14G21    29.80F
LETHBRIDGE     CLEAR     45  36  71 SE10      29.89F
MEDICINE HAT   CLOUDY    50  36  59 S15G21    29.95F
EDMONTON       MOCLDY    36  32  85 SE18G25   29.77F WCI  26
WATERTON GATE  N/A       43  32  65 SW5        N/A
CARDSTON       N/A       43  36  76 SE10G17    N/A
MILK RIVER     N/A       39  34  82 S15        N/A   WCI  31
$$

REGIONAL REPORTS...SASKATCHEWAN
CITY           SKY/WX    TMP DP  RH WIND       PRES   REMARKS
SWIFT CURRENT  CLOUDY    32  30  92 SE32G41   30.14F WCI  17
REGINA         FAIR      23  21  92 SE20      30.39F WCI   8
VAL MARIE      N/A       34  30  85 S20G25     N/A   WCI  23
ASSINIBOIA     N/A       34  28  79 SE16G24    N/A   WCI  24
CORONACH       N/A       32  28  85 SE18G26    N/A   WCI  21

$$




USA.gov is the U.S. government's official web portal to all federal, state and local government web resources and services.